QPF
0.00 0.00 0.01 0.02 0.01 0.03 0.02 0.01 0.01 0.01 0.01 0.01 0.01 0.01 0.01 0.00 0.00 0.00 0.00 0.01 0.03 0.03 0.03 0.03 0.03 0.02 0.02 0.02 0.02 0.03 0.04 0.05 0.05 0.04 0.04 0.04 0.04 0.03 0.02 0.02 0.02 0.02 0.02 0.02 0.03 0.03 0.03 0.05 0.06
0.01 0.01 0.01 0.01 0.01 0.01 0.02 0.02 0.02 0.01 0.00 0.00 0.00 0.00 0.00 0.00 0.00 0.00 0.01 0.01 0.02 0.02 0.02 0.01 0.02 0.02 0.02 0.02 0.02 0.03 0.04 0.04 0.04 0.03 0.03 0.03 0.03 0.03 0.02 0.02 0.02 0.02 0.02 0.02 0.02 0.03 0.05 0.06 0.05
0.01 0.02 0.01 0.01 0.02 0.01 0.02 0.03 0.01 0.00 0.00 0.00 0.00 0.00 0.00 0.00 0.00 0.00 0.00 0.01 0.02 0.02 0.01 0.01 0.02 0.02 0.01 0.01 0.02 0.02 0.03 0.03 0.03 0.02 0.02 0.02 0.02 0.03 0.04 0.02 0.02 0.02 0.02 0.02 0.03 0.04 0.05 0.06 0.05
0.01 0.01 0.01 0.02 0.03 0.02 0.02 0.02 0.01 0.01 0.00 0.00 0.00 0.01 0.01 0.01 0.00 0.00 0.00 0.01 0.02 0.02 0.01 0.01 0.02 0.01 0.01 0.01 0.01 0.01 0.02 0.02 0.02 0.02 0.02 0.02 0.03 0.03 0.04 0.01 0.02 0.02 0.02 0.02 0.02 0.04 0.06 0.05 0.04
0.01 0.01 0.01 0.02 0.02 0.02 0.01 0.01 0.01 0.01 0.00 0.00 0.00 0.00 0.01 0.01 0.00 0.00 0.01 0.02 0.01 0.01 0.01 0.01 0.03 0.02 0.02 0.03 0.03 0.02 0.02 0.03 0.03 0.03 0.02 0.02 0.03 0.03 0.03 0.01 0.02 0.02 0.03 0.02 0.03 0.04 0.05 0.05 0.05
0.01 0.01 0.01 0.02 0.02 0.02 0.02 0.01 0.01 0.00 0.00 0.00 0.00 0.00 0.00 0.01 0.00 0.01 0.01 0.01 0.01 0.02 0.01 0.01 0.02 0.02 0.01 0.03 0.03 0.03 0.02 0.03 0.04 0.04 0.03 0.03 0.04 0.06 0.04 0.02 0.03 0.03 0.04 0.03 0.04 0.05 0.05 0.05 0.06
0.00 0.00 0.01 0.03 0.02 0.02 0.01 0.01 0.00 0.00 0.00 0.00 0.00 0.00 0.00 0.01 0.01 0.02 0.02 0.01 0.01 0.01 0.01 0.01 0.01 0.02 0.03 0.02 0.03 0.03 0.03 0.04 0.04 0.04 0.04 0.05 0.04 0.04 0.03 0.03 0.05 0.05 0.05 0.05 0.06 0.05 0.04 0.04 0.06
0.00 0.00 0.00 0.01 0.01 0.01 0.01 0.00 0.00 0.00 0.00 0.00 0.00 0.00 0.00 0.00 0.02 0.02 0.01 0.00 0.01 0.01 0.01 0.01 0.01 0.01 0.02 0.03 0.03 0.02 0.02 0.04 0.05 0.06 0.05 0.05 0.04 0.02 0.04 0.04 0.06 0.07 0.06 0.06 0.07 0.06 0.03 0.04 0.07
0.00 0.00 0.00 0.00 0.00 0.00 0.00 0.00 0.00 0.00 0.00 0.00 0.00 0.00 0.00 0.00 0.01 0.01 0.00 0.00 0.01 0.01 0.01 0.01 0.01 0.01 0.01 0.02 0.02 0.03 0.02 0.03 0.04 0.06 0.06 0.04 0.02 0.01 0.02 0.04 0.04 0.05 0.08 0.06 0.06 0.05 0.03 0.04 0.06
0.00 0.00 0.00 0.00 0.00 0.00 0.00 0.00 0.00 0.00 0.00 0.00 0.00 0.00 0.00 0.00 0.00 0.01 0.00 0.00 0.01 0.01 0.00 0.00 0.01 0.01 0.01 0.01 0.02 0.02 0.01 0.01 0.01 0.02 0.03 0.02 0.01 0.01 0.02 0.04 0.05 0.05 0.08 0.08 0.07 0.05 0.04 0.03 0.04
0.00 0.00 0.00 0.00 0.00 0.00 0.00 0.00 0.00 0.00 0.00 0.00 0.00 0.00 0.00 0.00 0.00 0.01 0.00 0.01 0.01 0.01 0.01 0.01 0.01 0.01 0.01 0.02 0.02 0.01 0.01 0.01 0.00 0.01 0.01 0.01 0.01 0.01 0.02 0.02 0.04 0.04 0.06 0.06 0.06 0.05 0.02 0.01 0.03
0.00 0.00 0.00 0.00 0.00 0.00 0.00 0.00 0.00 0.00 0.00 0.00 0.00 0.00 0.00 0.00 0.00 0.00 0.01 0.01 0.01 0.01 0.02 0.02 0.01 0.01 0.01 0.02 0.01 0.01 0.01 0.01 0.01 0.00 0.00 0.00 0.00 0.00 0.00 0.01 0.02 0.03 0.05 0.04 0.02 0.02 0.02 0.02 0.03
0.00 0.00 0.00 0.00 0.00 0.00 0.00 0.00 0.00 0.00 0.00 0.01 0.01 0.01 0.00 0.00 0.01 0.01 0.01 0.01 0.02 0.02 0.03 0.03 0.01 0.01 0.02 0.02 0.01 0.01 0.01 0.01 0.01 0.00 0.00 0.00 0.00 0.00 0.00 0.01 0.03 0.05 0.04 0.03 0.02 0.02 0.02 0.01 0.02
0.00 0.00 0.00 0.00 0.00 0.00 0.00 0.00 0.00 0.00 0.00 0.00 0.00 0.01 0.01 0.01 0.01 0.01 0.01 0.01 0.02 0.02 0.02 0.02 0.01 0.02 0.03 0.04 0.03 0.03 0.02 0.02 0.02 0.01 0.01 0.01 0.00 0.00 0.01 0.01 0.02 0.04 0.04 0.05 0.04 0.02 0.02 0.02 0.02
0.00 0.00 0.00 0.00 0.00 0.00 0.00 0.00 0.00 0.00 0.00 0.00 0.00 0.00 0.00 0.00 0.00 0.00 0.00 0.00 0.00 0.01 0.01 0.01 0.01 0.02 0.02 0.03 0.03 0.03 0.03 0.03 0.02 0.01 0.01 0.01 0.01 0.01 0.01 0.01 0.01 0.03 0.03 0.03 0.04 0.04 0.03 0.02 0.03
0.00 0.00 0.00 0.00 0.00 0.00 0.00 0.00 0.00 0.00 0.00 0.00 0.00 0.00 0.00 0.00 0.00 0.00 0.00 0.00 0.00 0.00 0.00 0.01 0.01 0.01 0.02 0.03 0.03 0.03 0.03 0.03 0.03 0.03 0.02 0.01 0.01 0.02 0.02 0.02 0.02 0.02 0.02 0.02 0.03 0.04 0.03 0.03 0.03
0.00 0.00 0.00 0.00 0.00 0.00 0.00 0.00 0.00 0.00 0.00 0.00 0.00 0.00 0.00 0.00 0.00 0.00 0.00 0.00 0.00 0.00 0.00 0.01 0.01 0.01 0.02 0.03 0.04 0.04 0.05 0.04 0.04 0.05 0.04 0.03 0.04 0.05 0.06 0.05 0.05 0.05 0.04 0.04 0.03 0.03 0.03 0.03 0.03
0.00 0.00 0.00 0.00 0.00 0.00 0.00 0.00 0.00 0.00 0.00 0.00 0.00 0.00 0.00 0.00 0.00 0.00 0.00 0.00 0.00 0.00 0.00 0.00 0.00 0.01 0.01 0.02 0.03 0.05 0.05 0.05 0.06 0.06 0.05 0.05 0.05 0.07 0.08 0.08 0.09 0.08 0.07 0.06 0.06 0.05 0.03 0.02 0.04
0.00 0.00 0.00 0.00 0.00 0.00 0.00 0.00 0.00 0.00 0.00 0.00 0.00 0.00 0.00 0.00 0.00 0.00 0.00 0.00 0.00 0.00 0.00 0.00 0.00 0.01 0.01 0.01 0.01 0.02 0.05 0.07 0.07 0.07 0.06 0.07 0.07 0.09 0.09 0.07 0.09 0.09 0.08 0.08 0.09 0.07 0.05 0.03 0.05
0.00 0.00 0.00 0.00 0.00 0.00 0.00 0.00 0.00 0.00 0.00 0.00 0.00 0.00 0.00 0.00 0.00 0.00 0.00 0.00 0.00 0.00 0.00 0.00 0.00 0.00 0.00 0.01 0.01 0.02 0.03 0.06 0.09 0.06 0.07 0.08 0.08 0.08 0.08 0.08 0.08 0.09 0.07 0.07 0.10 0.09 0.06 0.05 0.07
0.00 0.00 0.00 0.00 0.00 0.00 0.00 0.00 0.00 0.00 0.00 0.00 0.00 0.00 0.00 0.00 0.00 0.00 0.00 0.00 0.00 0.00 0.00 0.00 0.00 0.01 0.01 0.01 0.01 0.01 0.02 0.04 0.08 0.06 0.07 0.07 0.07 0.07 0.08 0.09 0.09 0.07 0.06 0.06 0.08 0.07 0.06 0.06 0.06
0.00 0.00 0.00 0.00 0.00 0.00 0.00 0.00 0.00 0.00 0.00 0.00 0.00 0.00 0.00 0.00 0.00 0.00 0.00 0.00 0.00 0.00 0.00 0.00 0.00 0.01 0.01 0.01 0.01 0.01 0.01 0.02 0.04 0.04 0.04 0.05 0.07 0.05 0.05 0.06 0.09 0.10 0.07 0.05 0.06 0.07 0.06 0.07 0.08
0.00 0.00 0.00 0.00 0.00 0.00 0.00 0.00 0.00 0.00 0.00 0.00 0.00 0.00 0.00 0.00 0.01 0.00 0.00 0.01 0.00 0.00 0.00 0.00 0.00 0.00 0.01 0.02 0.01 0.01 0.01 0.02 0.02 0.02 0.03 0.04 0.06 0.04 0.04 0.05 0.06 0.09 0.08 0.06 0.06 0.07 0.07 0.07 0.08
0.00 0.00 0.00 0.00 0.00 0.00 0.00 0.00 0.00 0.00 0.00 0.00 0.00 0.00 0.00 0.00 0.00 0.00 0.00 0.00 0.00 0.00 0.00 0.00 0.00 0.00 0.00 0.01 0.01 0.01 0.01 0.01 0.02 0.02 0.02 0.03 0.03 0.03 0.03 0.03 0.05 0.08 0.08 0.06 0.04 0.04 0.04 0.04 0.04
0.00 0.00 0.00 0.00 0.00 0.00 0.00 0.00 0.00 0.00 0.00 0.00 0.00 0.00 0.00 0.00 0.00 0.00 0.00 0.01 0.01 0.00 0.00 0.00 0.00 0.00 0.01 0.02 0.02 0.02 0.01 0.01 0.00 0.01 0.02 0.03 0.02 0.02 0.04 0.05 0.06 0.07 0.08 0.06 0.05 0.05 0.05 0.05 0.04
0.00 0.00 0.00 0.00 0.00 0.00 0.00 0.00 0.00 0.00 0.00 0.00 0.00 0.00 0.00 0.00 0.00 0.01 0.01 0.02 0.02 0.01 0.00 0.00 0.00 0.01 0.01 0.02 0.02 0.01 0.02 0.01 0.00 0.01 0.02 0.02 0.02 0.03 0.04 0.04 0.06 0.07 0.07 0.07 0.07 0.06 0.05 0.06 0.05
0.00 0.00 0.00 0.00 0.00 0.00 0.00 0.00 0.00 0.00 0.00 0.00 0.00 0.00 0.00 0.00 0.00 0.01 0.01 0.02 0.02 0.01 0.00 0.00 0.00 0.01 0.01 0.01 0.01 0.01 0.02 0.02 0.01 0.01 0.02 0.04 0.04 0.03 0.03 0.03 0.04 0.04 0.06 0.07 0.07 0.05 0.05 0.04 0.04
0.00 0.00 0.00 0.00 0.00 0.00 0.00 0.00 0.00 0.00 0.00 0.00 0.00 0.00 0.00 0.00 0.00 0.01 0.01 0.01 0.01 0.01 0.01 0.01 0.00 0.01 0.01 0.01 0.01 0.01 0.02 0.02 0.01 0.01 0.02 0.02 0.04 0.05 0.04 0.03 0.03 0.02 0.03 0.03 0.03 0.04 0.05 0.04 0.04
0.00 0.00 0.00 0.00 0.00 0.00 0.00 0.00 0.00 0.00 0.00 0.00 0.00 0.00 0.00 0.00 0.00 0.01 0.01 0.00 0.00 0.01 0.01 0.01 0.01 0.01 0.01 0.00 0.00 0.01 0.01 0.01 0.01 0.01 0.01 0.01 0.01 0.02 0.04 0.04 0.04 0.03 0.02 0.02 0.02 0.02 0.04 0.03 0.04
0.00 0.00 0.00 0.00 0.00 0.00 0.00 0.00 0.00 0.00 0.01 0.00 0.00 0.00 0.00 0.00 0.00 0.00 0.00 0.00 0.01 0.01 0.01 0.01 0.02 0.01 0.01 0.01 0.01 0.01 0.01 0.01 0.02 0.03 0.02 0.02 0.01 0.01 0.01 0.02 0.03 0.03 0.04 0.04 0.03 0.02 0.03 0.03 0.04
MSLP
1006.71 1007.99 1009.37 1010.70 1011.86 1012.75 1013.33 1013.61 1013.67 1013.61 1013.52 1013.49 1013.55 1013.68 1013.84 1013.94 1013.93 1013.77 1013.45 1013.04 1012.59 1012.21 1011.96 1011.88 1011.98 1012.19 1012.47 1012.73 1012.93 1013.05 1013.08 1013.09 1013.11 1013.20 1013.38 1013.65 1013.97 1014.30 1014.58 1014.79 1014.92 1014.98 1015.01 1015.04 1015.12 1015.26 1015.47 1015.71 1015.97
1007.14 1008.59 1010.08 1011.44 1012.54 1013.28 1013.65 1013.68 1013.48 1013.16 1012.85 1012.65 1012.61 1012.70 1012.88 1013.06 1013.16 1013.14 1012.99 1012.72 1012.42 1012.16 1011.99 1011.96 1012.07 1012.29 1012.55 1012.80 1013.01 1013.14 1013.22 1013.28 1013.35 1013.49 1013.69 1013.95 1014.23 1014.50 1014.72 1014.86 1014.93 1014.95 1014.96 1015.00 1015.11 1015.28 1015.52 1015.79 1016.08
1007.75 1009.30 1010.82 1012.14 1013.12 1013.69 1013.85 1013.66 1013.24 1012.72 1012.27 1011.96 1011.85 1011.93 1012.14 1012.39 1012.59 1012.69 1012.66 1012.53 1012.35 1012.19 1012.09 1012.11 1012.24 1012.45 1012.70 1012.95 1013.15 1013.30 1013.40 1013.50 1013.61 1013.76 1013.95 1014.18 1014.42 1014.62 1014.76 1014.83 1014.85 1014.84 1014.85 1014.92 1015.06 1015.28 1015.56 1015.88 1016.20
1008.51 1010.09 1011.57 1012.78 1013.60 1013.99 1013.96 1013.60 1013.03 1012.41 1011.87 1011.52 1011.40 1011.48 1011.71 1012.00 1012.26 1012.44 1012.50 1012.46 1012.37 1012.29 1012.26 1012.31 1012.46 1012.66 1012.90 1013.13 1013.32 1013.47 1013.59 1013.70 1013.83 1013.98 1014.16 1014.35 1014.52 1014.65 1014.73 1014.75 1014.73 1014.72 1014.75 1014.86 1015.05 1015.32 1015.66 1016.02 1016.38
1009.33 1010.87 1012.23 1013.28 1013.94 1014.16 1013.99 1013.51 1012.88 1012.23 1011.70 1011.37 1011.26 1011.36 1011.61 1011.91 1012.18 1012.38 1012.48 1012.50 1012.47 1012.44 1012.45 1012.54 1012.69 1012.89 1013.11 1013.32 1013.49 1013.63 1013.75 1013.86 1013.98 1014.13 1014.29 1014.44 1014.57 1014.65 1014.68 1014.67 1014.65 1014.65 1014.72 1014.87 1015.12 1015.45 1015.84 1016.24 1016.63
1010.08 1011.50 1012.71 1013.58 1014.06 1014.14 1013.88 1013.38 1012.77 1012.18 1011.72 1011.46 1011.40 1011.53 1011.77 1012.05 1012.30 1012.48 1012.58 1012.61 1012.61 1012.62 1012.67 1012.78 1012.94 1013.13 1013.32 1013.49 1013.63 1013.75 1013.85 1013.95 1014.07 1014.21 1014.36 1014.50 1014.60 1014.66 1014.67 1014.66 1014.65 1014.68 1014.79 1014.99 1015.29 1015.67 1016.10 1016.53 1016.93
1010.61 1011.88 1012.90 1013.58 1013.90 1013.89 1013.59 1013.14 1012.62 1012.16 1011.83 1011.68 1011.70 1011.86 1012.08 1012.33 1012.53 1012.66 1012.73 1012.76 1012.77 1012.81 1012.89 1013.02 1013.19 1013.36 1013.52 1013.65 1013.75 1013.83 1013.90 1013.99 1014.11 1014.25 1014.40 1014.54 1014.65 1014.71 1014.74 1014.74 1014.75 1014.82 1014.97 1015.22 1015.56 1015.97 1016.41 1016.85 1017.25
1010.85 1011.94 1012.76 1013.26 1013.46 1013.38 1013.11 1012.75 1012.38 1012.09 1011.93 1011.92 1012.02 1012.21 1012.43 1012.62 1012.76 1012.85 1012.88 1012.90 1012.94 1013.01 1013.12 1013.28 1013.45 1013.61 1013.74 1013.82 1013.87 1013.91 1013.95 1014.02 1014.14 1014.28 1014.45 1014.62 1014.75 1014.84 1014.88 1014.91 1014.96 1015.06 1015.24 1015.51 1015.87 1016.29 1016.74 1017.17 1017.56
1010.77 1011.68 1012.32 1012.67 1012.77 1012.67 1012.46 1012.22 1012.02 1011.92 1011.94 1012.07 1012.26 1012.49 1012.69 1012.85 1012.94 1012.98 1013.00 1013.03 1013.09 1013.20 1013.36 1013.54 1013.72 1013.87 1013.97 1014.02 1014.02 1014.02 1014.03 1014.08 1014.19 1014.36 1014.55 1014.75 1014.91 1015.04 1015.12 1015.18 1015.25 1015.36 1015.56 1015.84 1016.20 1016.61 1017.04 1017.45 1017.82
1010.48 1011.22 1011.69 1011.92 1011.94 1011.85 1011.71 1011.60 1011.57 1011.65 1011.84 1012.09 1012.36 1012.62 1012.82 1012.95 1013.02 1013.04 1013.06 1013.11 1013.21 1013.37 1013.58 1013.81 1014.01 1014.16 1014.24 1014.25 1014.22 1014.18 1014.16 1014.21 1014.32 1014.50 1014.73 1014.95 1015.16 1015.31 1015.42 1015.50 1015.59 1015.71 1015.90 1016.16 1016.50 1016.89 1017.30 1017.68 1018.01
1010.11 1010.71 1011.05 1011.17 1011.15 1011.07 1010.99 1011.00 1011.11 1011.33 1011.64 1011.99 1012.33 1012.61 1012.82 1012.94 1012.99 1013.01 1013.05 1013.14 1013.30 1013.52 1013.78 1014.05 1014.28 1014.44 1014.52 1014.52 1014.46 1014.40 1014.37 1014.42 1014.54 1014.74 1014.98 1015.24 1015.47 1015.65 1015.78 1015.87 1015.96 1016.07 1016.24 1016.48 1016.78 1017.14 1017.50 1017.85 1018.15
1009.85 1010.33 1010.56 1010.61 1010.55 1010.47 1010.45 1010.53 1010.73 1011.04 1011.43 1011.84 1012.21 1012.50 1012.71 1012.82 1012.88 1012.92 1012.99 1013.12 1013.33 1013.61 1013.92 1014.24 1014.50 1014.69 1014.78 1014.78 1014.73 1014.68 1014.65 1014.70 1014.84 1015.05 1015.31 1015.58 1015.83 1016.03 1016.17 1016.27 1016.34 1016.44 1016.57 1016.77 1017.04 1017.35 1017.68 1017.98 1018.25
1009.82 1010.21 1010.37 1010.35 1010.26 1010.17 1010.17 1010.28 1010.52 1010.86 1011.27 1011.69 1012.06 1012.35 1012.55 1012.67 1012.73 1012.79 1012.89 1013.06 1013.31 1013.62 1013.98 1014.33 1014.63 1014.85 1014.98 1015.02 1015.00 1014.97 1014.97 1015.04 1015.19 1015.41 1015.68 1015.96 1016.22 1016.43 1016.57 1016.66 1016.73 1016.80 1016.91 1017.07 1017.29 1017.56 1017.84 1018.11 1018.34
1010.10 1010.42 1010.51 1010.45 1010.33 1010.22 1010.20 1010.30 1010.52 1010.84 1011.22 1011.60 1011.94 1012.21 1012.40 1012.52 1012.59 1012.67 1012.78 1012.97 1013.23 1013.56 1013.94 1014.31 1014.65 1014.91 1015.09 1015.19 1015.23 1015.25 1015.29 1015.39 1015.55 1015.78 1016.05 1016.33 1016.59 1016.80 1016.95 1017.04 1017.10 1017.16 1017.24 1017.37 1017.55 1017.77 1018.01 1018.24 1018.44
1010.64 1010.90 1010.93 1010.84 1010.68 1010.55 1010.50 1010.55 1010.72 1010.97 1011.28 1011.60 1011.89 1012.13 1012.30 1012.41 1012.49 1012.58 1012.70 1012.88 1013.13 1013.45 1013.82 1014.20 1014.56 1014.87 1015.11 1015.28 1015.40 1015.49 1015.58 1015.71 1015.89 1016.12 1016.38 1016.65 1016.90 1017.11 1017.27 1017.37 1017.44 1017.50 1017.58 1017.68 1017.83 1018.01 1018.21 1018.40 1018.56
1011.29 1011.49 1011.49 1011.37 1011.20 1011.05 1010.96 1010.95 1011.04 1011.20 1011.42 1011.66 1011.89 1012.08 1012.24 1012.35 1012.45 1012.54 1012.65 1012.82 1013.04 1013.33 1013.67 1014.04 1014.41 1014.76 1015.07 1015.32 1015.52 1015.68 1015.84 1016.00 1016.18 1016.40 1016.64 1016.89 1017.13 1017.34 1017.52 1017.64 1017.74 1017.81 1017.89 1017.99 1018.11 1018.25 1018.41 1018.56 1018.69
1011.88 1012.03 1012.02 1011.91 1011.74 1011.58 1011.46 1011.39 1011.39 1011.46 1011.57 1011.72 1011.88 1012.05 1012.20 1012.33 1012.44 1012.55 1012.66 1012.81 1013.00 1013.24 1013.54 1013.88 1014.26 1014.64 1015.00 1015.33 1015.61 1015.85 1016.05 1016.23 1016.41 1016.61 1016.82 1017.04 1017.26 1017.48 1017.67 1017.83 1017.96 1018.07 1018.17 1018.26 1018.37 1018.49 1018.61 1018.73 1018.83
1012.25 1012.38 1012.38 1012.31 1012.18 1012.05 1011.91 1011.79 1011.71 1011.67 1011.68 1011.73 1011.83 1011.97 1012.13 1012.29 1012.45 1012.59 1012.72 1012.86 1013.02 1013.22 1013.47 1013.79 1014.16 1014.56 1014.97 1015.36 1015.71 1016.00 1016.24 1016.43 1016.59 1016.75 1016.91 1017.10 1017.30 1017.51 1017.73 1017.92 1018.10 1018.25 1018.37 1018.48 1018.58 1018.68 1018.78 1018.87 1018.95
1012.32 1012.46 1012.52 1012.52 1012.48 1012.40 1012.27 1012.12 1011.95 1011.80 1011.69 1011.64 1011.68 1011.80 1011.98 1012.19 1012.41 1012.62 1012.80 1012.95 1013.11 1013.28 1013.50 1013.79 1014.15 1014.56 1015.01 1015.44 1015.84 1016.17 1016.42 1016.60 1016.73 1016.84 1016.95 1017.08 1017.25 1017.46 1017.69 1017.93 1018.15 1018.34 1018.50 1018.62 1018.72 1018.81 1018.89 1018.97 1019.04
1012.10 1012.29 1012.46 1012.60 1012.68 1012.68 1012.58 1012.39 1012.13 1011.85 1011.60 1011.44 1011.40 1011.49 1011.70 1011.98 1012.29 1012.59 1012.84 1013.05 1013.23 1013.40 1013.60 1013.87 1014.22 1014.63 1015.10 1015.56 1015.99 1016.34 1016.60 1016.76 1016.85 1016.89 1016.94 1017.02 1017.16 1017.35 1017.59 1017.86 1018.11 1018.34 1018.53 1018.67 1018.77 1018.85 1018.92 1018.99 1019.07
1011.70 1012.01 1012.34 1012.66 1012.90 1013.00 1012.92 1012.68 1012.30 1011.86 1011.45 1011.15 1011.00 1011.05 1011.27 1011.62 1012.03 1012.44 1012.81 1013.10 1013.33 1013.52 1013.73 1013.99 1014.32 1014.74 1015.21 1015.69 1016.13 1016.49 1016.75 1016.89 1016.93 1016.93 1016.91 1016.94 1017.04 1017.21 1017.45 1017.72 1018.01 1018.26 1018.46 1018.61 1018.71 1018.79 1018.85 1018.93 1019.03
1011.29 1011.77 1012.32 1012.85 1013.26 1013.46 1013.40 1013.08 1012.55 1011.91 1011.29 1010.80 1010.52 1010.50 1010.71 1011.11 1011.63 1012.16 1012.64 1013.04 1013.34 1013.58 1013.80 1014.06 1014.38 1014.79 1015.26 1015.75 1016.21 1016.58 1016.84 1016.96 1016.98 1016.93 1016.87 1016.85 1016.91 1017.05 1017.28 1017.55 1017.84 1018.10 1018.31 1018.45 1018.55 1018.61 1018.68 1018.76 1018.88
1011.04 1011.74 1012.54 1013.29 1013.86 1014.14 1014.06 1013.63 1012.91 1012.04 1011.18 1010.47 1010.01 1009.88 1010.07 1010.50 1011.10 1011.74 1012.34 1012.84 1013.22 1013.51 1013.75 1014.01 1014.33 1014.73 1015.20 1015.69 1016.16 1016.55 1016.82 1016.95 1016.96 1016.90 1016.81 1016.76 1016.78 1016.89 1017.09 1017.35 1017.62 1017.87 1018.07 1018.20 1018.28 1018.33 1018.39 1018.48 1018.61
1011.06 1012.00 1013.04 1013.99 1014.70 1015.02 1014.89 1014.31 1013.39 1012.26 1011.13 1010.18 1009.54 1009.28 1009.40 1009.85 1010.50 1011.23 1011.93 1012.51 1012.96 1013.30 1013.56 1013.81 1014.12 1014.51 1014.97 1015.47 1015.95 1016.37 1016.66 1016.82 1016.85 1016.80 1016.71 1016.64 1016.64 1016.72 1016.89 1017.12 1017.36 1017.58 1017.75 1017.86 1017.92 1017.95 1017.99 1018.08 1018.22
1011.37 1012.53 1013.77 1014.88 1015.67 1015.99 1015.78 1015.04 1013.89 1012.52 1011.14 1009.95 1009.13 1008.74 1008.80 1009.23 1009.91 1010.70 1011.47 1012.11 1012.61 1012.96 1013.23 1013.47 1013.76 1014.12 1014.57 1015.07 1015.58 1016.02 1016.36 1016.57 1016.64 1016.62 1016.54 1016.48 1016.47 1016.53 1016.66 1016.86 1017.06 1017.24 1017.38 1017.45 1017.48 1017.49 1017.51 1017.58 1017.72
1011.88 1013.20 1014.57 1015.77 1016.58 1016.87 1016.55 1015.65 1014.31 1012.73 1011.14 1009.78 1008.81 1008.32 1008.32 1008.73 1009.42 1010.24 1011.03 1011.71 1012.22 1012.57 1012.82 1013.04 1013.29 1013.62 1014.05 1014.55 1015.07 1015.55 1015.94 1016.20 1016.32 1016.34 1016.31 1016.26 1016.24 1016.29 1016.40 1016.55 1016.72 1016.86 1016.96 1017.00 1017.00 1016.98 1016.97 1017.02 1017.14
1012.42 1013.82 1015.24 1016.44 1017.22 1017.42 1016.99 1015.97 1014.50 1012.78 1011.07 1009.61 1008.56 1008.02 1007.99 1008.39 1009.08 1009.90 1010.70 1011.37 1011.87 1012.20 1012.41 1012.58 1012.79 1013.09 1013.49 1013.97 1014.50 1015.00 1015.43 1015.74 1015.92 1015.99 1015.99 1015.96 1015.96 1015.99 1016.08 1016.21 1016.35 1016.46 1016.52 1016.54 1016.51 1016.46 1016.43 1016.46 1016.55
1012.82 1014.19 1015.55 1016.68 1017.36 1017.47 1016.95 1015.85 1014.32 1012.57 1010.86 1009.40 1008.37 1007.84 1007.82 1008.22 1008.91 1009.72 1010.50 1011.14 1011.60 1011.89 1012.06 1012.18 1012.34 1012.59 1012.96 1013.42 1013.94 1014.45 1014.90 1015.24 1015.46 1015.57 1015.60 1015.60 1015.61 1015.65 1015.73 1015.84 1015.96 1016.05 1016.10 1016.10 1016.06 1015.99 1015.94 1015.94 1016.00
1012.93 1014.18 1015.38 1016.35 1016.90 1016.90 1016.32 1015.21 1013.72 1012.05 1010.44 1009.09 1008.16 1007.72 1007.75 1008.18 1008.87 1009.66 1010.40 1011.00 1011.42 1011.66 1011.78 1011.86 1011.98 1012.19 1012.52 1012.95 1013.44 1013.94 1014.39 1014.74 1014.97 1015.11 1015.16 1015.18 1015.20 1015.25 1015.34 1015.45 1015.57 1015.66 1015.72 1015.72 1015.67 1015.60 1015.54 1015.51 1015.53
1012.72 1013.74 1014.73 1015.49 1015.88 1015.78 1015.17 1014.11 1012.73 1011.23 1009.81 1008.65 1007.89 1007.58 1007.70 1008.17 1008.86 1009.62 1010.31 1010.87 1011.24 1011.44 1011.53 1011.59 1011.68 1011.87 1012.17 1012.57 1013.03 1013.50 1013.92 1014.26 1014.49 1014.63 1014.69 1014.72 1014.76 1014.82 1014.92 1015.05 1015.19 1015.31 1015.38 1015.40 1015.37 1015.31 1015.24 1015.18 1015.17
Thickness
5828 5823 5818 5805 5784 5761 5753 5763 5772 5771 5770 5777 5778 5772 5762 5755 5749 5745 5761 5768 5768 5766 5765 5763 5762 5761 5761 5760 5760 5760 5760 5760 5759 5759 5759 5760 5759 5759 5759 5759 5758 5758 5757 5756 5756 5755 5753 5752 5751
5830 5825 5814 5797 5768 5744 5751 5768 5770 5774 5778 5782 5779 5772 5763 5758 5762 5761 5763 5767 5768 5765 5763 5762 5761 5760 5759 5759 5758 5758 5758 5758 5757 5757 5757 5758 5758 5758 5758 5757 5757 5756 5756 5755 5754 5753 5752 5751 5750
5832 5827 5806 5786 5765 5752 5759 5773 5775 5782 5787 5784 5775 5772 5765 5759 5763 5764 5767 5769 5767 5764 5762 5761 5759 5758 5758 5757 5756 5756 5756 5756 5756 5756 5756 5756 5756 5756 5756 5756 5755 5755 5754 5754 5753 5752 5751 5749 5748
5831 5817 5803 5781 5769 5774 5777 5780 5784 5782 5784 5784 5776 5766 5768 5773 5771 5770 5771 5769 5765 5763 5761 5759 5758 5757 5756 5755 5755 5754 5754 5754 5754 5754 5754 5754 5754 5754 5754 5754 5753 5753 5753 5752 5751 5750 5749 5748 5746
5830 5810 5787 5771 5775 5785 5791 5792 5791 5782 5780 5780 5776 5763 5762 5773 5776 5773 5770 5767 5764 5761 5760 5758 5757 5756 5755 5754 5753 5753 5752 5753 5752 5752 5752 5752 5752 5752 5752 5752 5752 5752 5751 5751 5750 5749 5748 5746 5745
5818 5804 5775 5766 5777 5788 5793 5796 5791 5783 5780 5780 5775 5764 5762 5773 5773 5771 5769 5766 5763 5761 5759 5757 5756 5755 5754 5753 5752 5752 5751 5751 5751 5751 5751 5750 5750 5750 5750 5750 5750 5750 5750 5749 5748 5747 5746 5745 5744
5814 5797 5780 5779 5780 5785 5793 5799 5790 5784 5780 5781 5781 5764 5763 5769 5773 5773 5769 5766 5762 5760 5757 5756 5755 5754 5753 5752 5752 5751 5750 5750 5750 5749 5749 5749 5749 5748 5749 5749 5749 5749 5749 5748 5747 5746 5745 5744 5743
5826 5803 5787 5782 5783 5786 5800 5800 5798 5791 5786 5794 5788 5768 5763 5771 5775 5772 5767 5764 5761 5759 5757 5755 5754 5753 5752 5751 5751 5750 5750 5749 5748 5748 5748 5747 5747 5747 5747 5747 5747 5747 5747 5747 5746 5745 5744 5743 5742
5834 5798 5783 5789 5790 5795 5804 5799 5802 5806 5797 5795 5794 5786 5784 5782 5777 5769 5763 5760 5758 5757 5756 5755 5754 5753 5751 5751 5750 5749 5749 5748 5747 5747 5747 5746 5746 5746 5746 5746 5746 5746 5746 5746 5745 5744 5744 5742 5741
5823 5794 5800 5812 5813 5809 5808 5805 5803 5799 5791 5788 5788 5789 5789 5782 5775 5768 5762 5759 5757 5756 5756 5755 5754 5752 5751 5750 5749 5748 5748 5747 5746 5746 5746 5745 5745 5744 5745 5745 5745 5745 5745 5745 5744 5744 5743 5742 5741
5827 5812 5820 5824 5826 5822 5813 5809 5810 5797 5787 5791 5789 5787 5786 5780 5775 5770 5766 5763 5761 5760 5758 5757 5755 5753 5751 5750 5749 5747 5747 5746 5745 5745 5745 5744 5744 5743 5743 5743 5744 5744 5744 5743 5743 5742 5741 5741 5740
5830 5829 5832 5830 5832 5825 5817 5813 5807 5803 5804 5810 5805 5797 5789 5782 5777 5773 5770 5767 5765 5762 5760 5759 5757 5754 5752 5750 5749 5748 5747 5746 5745 5745 5745 5744 5743 5743 5742 5742 5742 5742 5742 5742 5742 5741 5741 5740 5739
5832 5832 5836 5836 5833 5828 5822 5814 5810 5809 5816 5815 5807 5798 5791 5786 5782 5779 5777 5772 5768 5765 5763 5762 5760 5757 5754 5751 5750 5749 5747 5746 5746 5745 5744 5744 5743 5742 5742 5741 5741 5741 5741 5741 5741 5740 5740 5740 5739
5835 5833 5832 5833 5831 5829 5818 5814 5811 5811 5817 5812 5804 5797 5794 5790 5786 5781 5778 5774 5771 5769 5767 5765 5762 5759 5756 5753 5751 5750 5749 5747 5746 5745 5745 5744 5743 5742 5742 5741 5741 5740 5740 5740 5740 5740 5740 5739 5739
5837 5826 5824 5827 5828 5825 5819 5805 5809 5817 5816 5808 5804 5800 5797 5794 5791 5787 5785 5782 5778 5775 5772 5769 5766 5762 5759 5756 5754 5752 5750 5749 5748 5747 5746 5745 5744 5743 5742 5741 5741 5740 5740 5740 5740 5739 5739 5739 5739
5827 5811 5802 5818 5824 5823 5811 5793 5814 5819 5814 5805 5804 5802 5798 5796 5795 5794 5792 5788 5785 5780 5776 5773 5770 5766 5762 5759 5757 5755 5753 5751 5749 5748 5747 5746 5745 5744 5743 5741 5741 5740 5740 5739 5739 5739 5738 5738 5738
5802 5791 5795 5808 5823 5821 5810 5800 5816 5820 5814 5806 5805 5804 5801 5798 5798 5798 5797 5793 5790 5785 5781 5776 5773 5769 5765 5762 5759 5757 5754 5752 5751 5749 5748 5747 5745 5744 5742 5742 5741 5740 5740 5739 5739 5739 5738 5737 5738
5792 5793 5796 5801 5817 5816 5807 5806 5816 5819 5816 5810 5808 5806 5804 5801 5802 5803 5801 5798 5794 5789 5785 5780 5776 5773 5768 5764 5761 5758 5756 5754 5752 5750 5749 5748 5747 5745 5743 5742 5742 5740 5740 5739 5739 5738 5738 5737 5737
5809 5801 5797 5806 5822 5814 5807 5808 5814 5817 5815 5811 5808 5807 5806 5807 5809 5807 5804 5801 5796 5791 5786 5782 5778 5775 5770 5765 5761 5757 5755 5754 5753 5752 5751 5750 5748 5747 5745 5743 5742 5741 5740 5739 5738 5737 5736 5736 5737
5808 5800 5800 5809 5820 5814 5806 5807 5816 5818 5818 5818 5814 5812 5810 5808 5807 5807 5805 5802 5798 5793 5789 5785 5781 5777 5774 5770 5766 5762 5759 5757 5756 5754 5753 5751 5750 5748 5746 5745 5743 5742 5741 5739 5739 5737 5735 5735 5735
5805 5801 5802 5802 5809 5810 5805 5799 5808 5817 5821 5821 5821 5819 5816 5813 5810 5808 5806 5803 5800 5796 5793 5790 5785 5781 5777 5773 5768 5764 5761 5758 5756 5755 5754 5753 5752 5750 5749 5747 5746 5744 5742 5740 5739 5738 5736 5733 5734
5797 5814 5812 5806 5792 5781 5794 5772 5799 5808 5812 5818 5821 5821 5820 5820 5817 5812 5809 5806 5804 5802 5799 5794 5789 5784 5780 5776 5771 5766 5761 5757 5757 5756 5756 5755 5753 5752 5750 5749 5747 5745 5743 5741 5740 5739 5737 5734 5731
5809 5817 5810 5802 5789 5777 5782 5772 5785 5804 5804 5815 5824 5827 5828 5825 5822 5818 5816 5813 5810 5807 5802 5798 5792 5787 5783 5778 5774 5769 5765 5763 5761 5759 5757 5755 5754 5753 5752 5750 5748 5746 5744 5742 5741 5739 5737 5735 5733
5816 5804 5792 5778 5770 5759 5774 5769 5776 5794 5808 5821 5830 5833 5833 5831 5828 5824 5821 5817 5812 5810 5805 5800 5795 5790 5786 5781 5777 5772 5768 5765 5762 5759 5757 5756 5754 5754 5753 5751 5749 5747 5745 5743 5741 5740 5738 5736 5734
5803 5777 5751 5749 5739 5747 5770 5768 5778 5813 5823 5829 5833 5836 5838 5835 5830 5825 5821 5817 5814 5811 5807 5803 5798 5793 5789 5785 5780 5776 5772 5769 5765 5762 5759 5757 5755 5754 5753 5752 5749 5747 5746 5744 5742 5739 5737 5735 5733
5792 5778 5748 5736 5734 5746 5764 5763 5793 5823 5831 5837 5840 5840 5839 5835 5833 5829 5825 5821 5817 5814 5810 5806 5800 5796 5792 5788 5784 5780 5776 5772 5769 5766 5762 5759 5757 5756 5755 5752 5750 5748 5746 5744 5741 5739 5737 5736 5734
5783 5773 5774 5749 5744 5741 5751 5769 5797 5823 5827 5831 5834 5835 5834 5835 5834 5831 5828 5824 5820 5816 5813 5809 5803 5798 5794 5791 5787 5783 5779 5775 5771 5768 5765 5762 5759 5758 5756 5753 5751 5748 5746 5744 5741 5738 5736 5735 5733
5792 5773 5754 5741 5727 5728 5747 5757 5771 5800 5811 5820 5825 5829 5832 5833 5833 5831 5828 5825 5821 5818 5815 5811 5807 5802 5797 5793 5789 5786 5781 5777 5773 5768 5764 5761 5759 5757 5754 5752 5750 5747 5745 5743 5740 5737 5735 5733 5732
5774 5765 5750 5736 5738 5726 5727 5748 5791 5797 5807 5813 5821 5828 5830 5832 5832 5830 5828 5826 5822 5818 5815 5811 5807 5802 5797 5793 5789 5786 5781 5777 5773 5769 5765 5761 5759 5756 5753 5750 5748 5745 5743 5741 5738 5736 5734 5731 5729
5779 5767 5752 5743 5735 5729 5729 5749 5802 5802 5808 5813 5818 5824 5827 5829 5830 5829 5826 5823 5819 5816 5813 5810 5807 5803 5799 5795 5790 5786 5782 5777 5773 5769 5766 5762 5758 5755 5752 5749 5745 5743 5741 5738 5736 5733 5731 5729 5726